Time,TemperatureF,DewpointF,PressureIn,WindDirection,WindDirectionDegrees,WindSpeedMPH,WindSpeedGustMPH,Humidity,HourlyPrecipIn,Conditions,Clouds,dailyrainin,SoftwareType,DateUTC
2013-05-11 09:02:00,54.0,53.0,25.90,ESE,102,1.0,2.0,97,0.00,,,0.00,,2013-05-11 16:02:00,
2013-05-11 09:12:00,54.0,53.0,25.90,ESE,102,1.0,2.0,97,0.00,,,0.00,,2013-05-11 16:12:00,
2013-05-11 09:22:00,55.0,52.0,25.84,NE,36,0.0,4.0,91,0.00,,,0.00,,2013-05-11 16:22:00,
2013-05-11 09:32:00,57.0,53.0,25.86,NNE,32,3.0,5.0,86,0.00,,,0.00,,2013-05-11 16:32:00,
2013-05-11 09:42:00,57.0,53.0,25.86,NNE,32,3.0,5.0,86,0.00,,,0.00,,2013-05-11 16:42:00,
2013-05-11 09:52:00,57.0,53.0,25.86,NNE,32,3.0,5.0,86,0.00,,,0.00,,2013-05-11 16:52:00,
2013-05-11 10:02:00,59.0,54.0,25.89,NE,44,0.0,3.0,85,0.00,,,0.00,,2013-05-11 17:02:00,
2013-05-11 10:11:00,59.0,54.0,25.89,NE,44,0.0,3.0,85,0.00,,,0.00,,2013-05-11 17:11:00,
2013-05-11 10:22:00,61.0,55.0,25.90,NE,49,1.0,4.0,80,0.00,,,0.00,,2013-05-11 17:22:00,
2013-05-11 10:31:00,64.0,54.0,25.88,ENE,66,2.0,3.0,71,0.00,,,0.00,,2013-05-11 17:31:00,
2013-05-11 10:41:00,65.0,55.0,25.88,East,82,1.0,2.0,69,0.00,,,0.00,,2013-05-11 17:41:00,
2013-05-11 10:51:00,65.0,55.0,25.88,East,82,1.0,2.0,69,0.00,,,0.00,,2013-05-11 17:51:00,
2013-05-11 11:01:00,65.0,55.0,25.88,East,82,1.0,2.0,69,0.00,,,0.00,,2013-05-11 18:01:00,
2013-05-11 11:11:00,65.0,55.0,25.88,East,82,1.0,2.0,69,0.00,,,0.00,,2013-05-11 18:11:00,
2013-05-11 11:21:00,66.0,55.0,25.89,NNE,16,0.0,3.0,67,0.00,,,0.00,,2013-05-11 18:21:00,
2013-05-11 11:32:00,67.0,55.0,25.89,NNE,16,0.0,3.0,66,0.00,,,0.00,,2013-05-11 18:32:00,
2013-05-11 11:41:00,69.0,56.0,25.93,North,355,1.0,3.0,64,0.00,,,0.00,,2013-05-11 18:41:00,
2013-05-11 11:51:00,69.0,56.0,25.93,North,355,1.0,3.0,64,0.00,,,0.00,,2013-05-11 18:51:00,
2013-05-11 12:02:00,68.0,57.0,25.90,NE,34,4.0,6.0,68,0.00,,,0.00,,2013-05-11 19:02:00,
2013-05-11 12:11:00,68.0,57.0,25.90,NE,34,4.0,6.0,68,0.00,,,0.00,,2013-05-11 19:11:00,
2013-05-11 12:21:00,68.0,57.0,25.90,NE,34,4.0,6.0,68,0.00,,,0.00,,2013-05-11 19:21:00,
2013-05-11 12:32:00,68.0,54.0,25.88,NE,34,3.0,6.0,62,0.00,,,0.00,,2013-05-11 19:32:00,
2013-05-11 12:41:00,68.0,54.0,25.88,NE,34,3.0,6.0,62,0.00,,,0.00,,2013-05-11 19:41:00,
2013-05-11 12:52:00,68.0,54.0,25.87,ENE,62,2.0,5.0,62,0.00,,,0.00,,2013-05-11 19:52:00,
2013-05-11 13:01:00,68.0,55.0,25.86,ENE,76,0.0,4.0,63,0.00,,,0.00,,2013-05-11 20:01:00,
2013-05-11 13:11:00,68.0,55.0,25.86,ENE,76,0.0,4.0,63,0.00,,,0.00,,2013-05-11 20:11:00,
2013-05-11 13:22:00,68.0,55.0,25.86,ENE,76,0.0,4.0,63,0.00,,,0.00,,2013-05-11 20:22:00,
2013-05-11 13:32:00,69.0,53.0,25.85,NNE,27,2.0,6.0,56,0.00,,,0.00,,2013-05-11 20:32:00,
2013-05-11 13:42:00,70.0,52.0,25.88,NNE,18,1.0,5.0,53,0.00,,,0.00,,2013-05-11 20:42:00,
2013-05-11 13:52:00,70.0,52.0,25.88,NNE,18,1.0,5.0,53,0.00,,,0.00,,2013-05-11 20:52:00,
2013-05-11 14:01:00,70.0,52.0,25.88,NNE,18,1.0,5.0,53,0.00,,,0.00,,2013-05-11 21:01:00,
2013-05-11 14:11:00,70.0,52.0,25.88,NNE,18,1.0,5.0,53,0.00,,,0.00,,2013-05-11 21:11:00,
2013-05-11 14:21:00,69.0,53.0,25.90,NNE,25,2.0,4.0,56,0.00,,,0.00,,2013-05-11 21:21:00,
2013-05-11 14:33:00,69.0,53.0,25.90,NNE,25,2.0,4.0,56,0.00,,,0.00,,2013-05-11 21:33:00,
2013-05-11 14:43:00,69.0,53.0,25.90,NNE,25,2.0,4.0,56,0.00,,,0.00,,2013-05-11 21:43:00,
2013-05-11 14:52:00,69.0,53.0,25.90,NNE,25,2.0,4.0,56,0.00,,,0.00,,2013-05-11 21:52:00,
2013-05-11 15:22:00,70.0,48.0,25.85,West,268,4.0,10.0,45,0.00,,,0.00,,2013-05-11 22:22:00,
2013-05-11 15:33:00,70.0,48.0,25.85,West,268,4.0,10.0,45,0.00,,,0.00,,2013-05-11 22:33:00,
2013-05-11 15:42:00,70.0,48.0,25.85,West,268,4.0,10.0,45,0.00,,,0.00,,2013-05-11 22:42:00,
2013-05-11 15:52:00,67.0,49.0,25.88,WNW,295,2.0,7.0,52,0.00,,,0.00,,2013-05-11 22:52:00,
2013-05-11 16:02:00,67.0,48.0,25.85,NW,325,1.0,8.0,50,0.00,,,0.00,,2013-05-11 23:02:00,
2013-05-11 16:11:00,67.0,48.0,25.85,NW,325,1.0,8.0,50,0.00,,,0.00,,2013-05-11 23:11:00,
2013-05-11 16:21:00,67.0,48.0,25.85,NW,325,1.0,8.0,50,0.00,,,0.00,,2013-05-11 23:21:00,
2013-05-11 16:31:00,69.0,51.0,25.86,NW,308,1.0,9.0,52,0.00,,,0.00,,2013-05-11 23:31:00,
2013-05-11 16:42:00,66.0,52.0,25.88,NNE,28,3.0,10.0,60,0.00,,,0.00,,2013-05-11 23:42:00,
2013-05-11 16:52:00,66.0,52.0,25.88,NNE,28,3.0,10.0,60,0.00,,,0.00,,2013-05-11 23:52:00,
2013-05-11 17:01:00,63.0,52.0,25.89,NNE,22,2.0,6.0,67,0.00,,,0.00,,2013-05-12 00:01:00,
2013-05-11 17:11:00,63.0,52.0,25.89,NNE,22,2.0,6.0,67,0.00,,,0.00,,2013-05-12 00:11:00,
2013-05-11 17:21:00,63.0,52.0,25.89,NNE,22,2.0,6.0,67,0.00,,,0.00,,2013-05-12 00:21:00,
2013-05-11 17:32:00,62.0,52.0,25.90,NE,50,1.0,3.0,70,0.00,,,0.00,,2013-05-12 00:32:00,
2013-05-11 17:41:00,62.0,52.0,25.89,NE,50,0.0,3.0,71,0.00,,,0.00,,2013-05-12 00:41:00,
2013-05-11 17:52:00,62.0,52.0,25.89,NE,50,0.0,3.0,71,0.00,,,0.00,,2013-05-12 00:52:00,
2013-05-11 18:01:00,64.0,54.0,25.88,NE,35,1.0,4.0,70,0.00,,,0.00,,2013-05-12 01:01:00,
2013-05-11 18:11:00,64.0,54.0,25.88,NE,35,1.0,4.0,70,0.00,,,0.00,,2013-05-12 01:11:00,
2013-05-11 18:21:00,64.0,54.0,25.88,NE,35,1.0,4.0,70,0.00,,,0.00,,2013-05-12 01:21:00,
2013-05-11 18:31:00,64.0,55.0,25.86,WNW,297,3.0,6.0,73,0.00,,,0.00,,2013-05-12 01:31:00,
2013-05-11 18:41:00,64.0,56.0,25.89,WSW,252,3.0,12.0,74,0.00,,,0.00,,2013-05-12 01:41:00,
2013-05-11 18:52:00,64.0,56.0,25.89,WSW,252,3.0,12.0,74,0.00,,,0.00,,2013-05-12 01:52:00,
2013-05-11 19:01:00,63.0,54.0,25.85,WNW,292,2.0,5.0,73,0.00,,,0.00,,2013-05-12 02:01:00,
2013-05-11 19:11:00,63.0,54.0,25.85,WNW,292,2.0,5.0,73,0.00,,,0.00,,2013-05-12 02:11:00,
2013-05-11 19:21:00,63.0,55.0,25.90,NW,321,1.0,4.0,76,0.00,,,0.00,,2013-05-12 02:21:00,
2013-05-11 19:31:00,63.0,55.0,25.90,NW,321,1.0,4.0,76,0.00,,,0.00,,2013-05-12 02:31:00,
2013-05-11 19:41:00,62.0,56.0,25.86,NW,309,0.0,2.0,80,0.00,,,0.00,,2013-05-12 02:41:00,
2013-05-11 19:52:00,62.0,56.0,25.86,NW,309,0.0,2.0,80,0.00,,,0.00,,2013-05-12 02:52:00,
2013-05-11 20:01:00,62.0,56.0,25.86,NW,309,0.0,2.0,80,0.00,,,0.00,,2013-05-12 03:01:00,
2013-05-11 20:11:00,62.0,56.0,25.86,NW,309,0.0,2.0,80,0.00,,,0.00,,2013-05-12 03:11:00,
2013-05-11 20:21:00,62.0,56.0,25.86,NW,309,0.0,2.0,80,0.00,,,0.00,,2013-05-12 03:21:00,